Forside
METAR-TAF:

METAR-TAF

Lufthavne :

Isedor Iverson Airport

McGregor, Minnesota, USA

Breddekreds: 46-37-07N, længdekreds: 093-18-35W, højde: 374 m

Aktuelle vejr

Denne rapport blev lavet for 34 minutter siden, kl. 16:35 UTC
Vind 7 kt fra vest
Temperatur 26°C
Fugtighed 45%
Tryk 1018 hPa
Sigt: 11.3 km
skyfri

METAR: KHZX 031635Z AUTO 26007KT 7SM CLR 26/13 A3007 RMK AO2

Tid: 12:09 (17:09 UTC)


TAF: fraværende

Vejrobservationer og prognoser fra mere end 4000 lufthavne (METAR og TAF).

De gule og røde prikker repræsenterer de meteorologiske stationer.

Flyt musen over at se navnet på stationen.

Så klik over at se vejr observationer og prognoser.

At skifte det kort: Klik på de grønne knapper med et sort kors for at zoome ind; på den grønne knap med en bindestreg for at zoome ud; eller på de grønne pile for tilstødende kort.


METAR-TAF: